Weather History for Kelso-Longview, WA

Change the Weather History Date:

Wednesday, October 2, 2013

  Actual Average Record
Temperature  
Mean Temperature 10 °C -  
Max Temperature 12 °C 18 °C 25 °C (2004)
Min Temperature 8 °C 7 °C 2 °C (2002)
Degree Days  
Heating Degree Days 16    
Moisture  
Dew Point 7 °C    
Average Humidity 87    
Maximum Humidity 93    
Minimum Humidity 72    
Precipitation  
Precipitation 7.62 mm - - ()
Sea Level Pressure  
Sea Level Pressure 1021 hPa    
Wind  
Wind Speed 10 km/h (SSE)    
Max Wind Speed 13 km/h    
Max Gust Speed -    
Visibility 15 kilometers    
Events      
Averages and records for this station are not official NWS values.
T = Trace of Precipitation, MM = Missing Value Source: NWS Daily Summary

Daily Weather History Graph

Daily Weather History Graph

Search for Another Location

Airport:

Trip Planner

Search our weather history database for the weather conditions in past years. The results will help you decide how hot, cold, wet, or windy it might be!

Date:

Astronomy

Oct. 02, 2013 Rise Set
Actual Time 7:11 AM PDT 6:48 PM PDT
Civil Twilight 6:41 AM PDT 7:18 PM PDT
Nautical Twilight 6:07 AM PDT 7:53 PM PDT
Astronomical Twilight 5:31 AM PDT 8:28 PM PDT
Moon 4:44 AM PDT (10/2) 5:32 PM PDT (10/2)
Length of Visible Light 12h 36m
Length of Day
11h 37m
Waning Crescent, 6% of the Moon is Illuminated
Oct 2
Waning Crescent
Oct 4
New
Oct 11
First Quarter
Oct 18
Full
Oct 26
Last Quarter

Hourly Weather History & Observations

Time (PDT) Temp. Windchill Dew Point Humidity Pressure Visibility Wind Dir Wind Speed Gust Speed Precip Events Conditions
12:15 AM 9.0 °C - 7.0 °C 87% 1022.9 hPa 16.1 km SSE 13.0 km/h / 3.6 m/s - N/A   Mostly Cloudy
12:35 AM 9.0 °C - 7.0 °C 87% 1022.9 hPa 16.1 km SSE 11.1 km/h / 3.1 m/s - N/A   Scattered Clouds
12:55 AM 9.0 °C - 7.0 °C 87% 1022.9 hPa 16.1 km South 9.3 km/h / 2.6 m/s - N/A   Overcast
1:15 AM 9.0 °C - 7.0 °C 87% 1022.6 hPa 16.1 km SSE 9.3 km/h / 2.6 m/s - N/A   Overcast
1:35 AM 9.0 °C - 7.0 °C 87% 1022.9 hPa 16.1 km SSE 9.3 km/h / 2.6 m/s - N/A   Overcast
1:55 AM 9.0 °C - 7.0 °C 87% 1022.9 hPa 16.1 km SE 9.3 km/h / 2.6 m/s - N/A   Mostly Cloudy
2:15 AM 9.0 °C - 7.0 °C 87% 1022.6 hPa 16.1 km SE 9.3 km/h / 2.6 m/s - N/A   Mostly Cloudy
2:35 AM 8.0 °C 6.1 °C 7.0 °C 93% 1022.6 hPa 16.1 km SE 11.1 km/h / 3.1 m/s - N/A   Mostly Cloudy
2:55 AM 8.0 °C 6.4 °C 7.0 °C 93% 1022.2 hPa 16.1 km SE 9.3 km/h / 2.6 m/s - N/A   Mostly Cloudy
3:15 AM 8.0 °C 6.4 °C 7.0 °C 93% 1022.2 hPa 16.1 km SE 9.3 km/h / 2.6 m/s - N/A   Scattered Clouds
3:35 AM 8.0 °C 6.4 °C 6.0 °C 87% 1021.9 hPa 16.1 km SE 9.3 km/h / 2.6 m/s - N/A   Scattered Clouds
3:55 AM 8.0 °C 6.8 °C 6.0 °C 87% 1021.9 hPa 16.1 km SE 7.4 km/h / 2.1 m/s - N/A   Partly Cloudy
4:15 AM 8.0 °C 6.8 °C 6.0 °C 87% 1021.9 hPa 16.1 km East 7.4 km/h / 2.1 m/s - N/A   Mostly Cloudy
4:35 AM 8.0 °C 6.8 °C 7.0 °C 93% 1021.6 hPa 16.1 km SE 7.4 km/h / 2.1 m/s - N/A   Overcast
4:55 AM 9.0 °C - 7.0 °C 87% 1021.2 hPa 16.1 km SE 9.3 km/h / 2.6 m/s - N/A   Overcast
5:15 AM 9.0 °C - 7.0 °C 87% 1021.2 hPa 16.1 km SSE 7.4 km/h / 2.1 m/s - N/A   Overcast
5:35 AM 9.0 °C - 7.0 °C 87% 1020.9 hPa 16.1 km SE 7.4 km/h / 2.1 m/s - N/A   Overcast
5:55 AM 9.0 °C - 7.0 °C 87% 1020.9 hPa 16.1 km SE 9.3 km/h / 2.6 m/s - N/A   Overcast
6:15 AM 9.0 °C - 7.0 °C 87% 1020.9 hPa 14.5 km ESE 5.6 km/h / 1.5 m/s - N/A   Overcast
6:35 AM 9.0 °C - 7.0 °C 87% 1020.9 hPa 16.1 km SE 7.4 km/h / 2.1 m/s - N/A   Mostly Cloudy
6:55 AM 9.0 °C - 7.0 °C 87% 1020.9 hPa 16.1 km SE 7.4 km/h / 2.1 m/s - N/A   Overcast
7:15 AM 9.0 °C - 7.0 °C 87% 1020.5 hPa 14.5 km SE 11.1 km/h / 3.1 m/s - N/A   Overcast
7:35 AM 9.0 °C - 7.0 °C 87% 1020.5 hPa 14.5 km SSE 13.0 km/h / 3.6 m/s - N/A   Overcast
7:55 AM 9.0 °C - 7.0 °C 87% 1020.5 hPa 16.1 km SSE 11.1 km/h / 3.1 m/s - N/A   Mostly Cloudy
8:15 AM 9.0 °C - 7.0 °C 87% 1020.5 hPa 16.1 km SSE 11.1 km/h / 3.1 m/s - N/A   Overcast
8:35 AM 9.0 °C - 7.0 °C 87% 1020.5 hPa 16.1 km SE 7.4 km/h / 2.1 m/s - N/A   Overcast
8:55 AM 9.0 °C - 7.0 °C 87% 1020.9 hPa 16.1 km Calm Calm - N/A   Overcast
9:15 AM 9.0 °C - 7.0 °C 87% 1020.9 hPa 16.1 km SSE 5.6 km/h / 1.5 m/s - N/A   Overcast
9:35 AM 9.0 °C - 7.0 °C 87% 1020.9 hPa 14.5 km SSE 7.4 km/h / 2.1 m/s - 0.3 mm   Overcast
9:55 AM 9.0 °C - 7.0 °C 87% 1020.9 hPa 8.0 km SSE 7.4 km/h / 2.1 m/s - 1.3 mm   Overcast
10:15 AM 9.0 °C - 7.0 °C 87% 1020.9 hPa 8.0 km SE 11.1 km/h / 3.1 m/s - 1.0 mm   Overcast
10:35 AM 9.0 °C - 7.0 °C 87% 1020.9 hPa 12.9 km SE 9.3 km/h / 2.6 m/s - 1.8 mm   Overcast
10:55 AM 9.0 °C - 7.0 °C 87% 1020.5 hPa 14.5 km SE 7.4 km/h / 2.1 m/s - 2.0 mm   Overcast
11:15 AM 9.0 °C - 8.0 °C 93% 1020.5 hPa 16.1 km SE 7.4 km/h / 2.1 m/s - 0.3 mm   Overcast
11:35 AM 10.0 °C - 7.0 °C 82% 1020.5 hPa 16.1 km South 11.1 km/h / 3.1 m/s - 0.3 mm   Overcast
11:55 AM 10.0 °C - 8.0 °C 87% 1020.5 hPa 16.1 km South 11.1 km/h / 3.1 m/s - 0.5 mm   Mostly Cloudy
12:15 PM 10.0 °C - 7.0 °C 82% 1020.5 hPa 16.1 km South 7.4 km/h / 2.1 m/s - 0.5 mm   Overcast
12:35 PM 10.0 °C - 8.0 °C 87% 1020.2 hPa 16.1 km South 11.1 km/h / 3.1 m/s - 0.8 mm   Mostly Cloudy
12:55 PM 10.0 °C - 8.0 °C 87% 1020.2 hPa 14.5 km South 5.6 km/h / 1.5 m/s - 1.0 mm   Overcast
1:15 PM 10.0 °C - 8.0 °C 87% 1020.2 hPa 14.5 km SSE 9.3 km/h / 2.6 m/s - 0.5 mm   Overcast
1:35 PM 11.0 °C - 8.0 °C 82% 1019.9 hPa 16.1 km SSE 9.3 km/h / 2.6 m/s - 0.8 mm   Overcast
1:55 PM 11.0 °C - 8.0 °C 82% 1019.9 hPa 11.3 km SSE 9.3 km/h / 2.6 m/s - 0.8 mm   Mostly Cloudy
2:15 PM 11.0 °C - 8.0 °C 82% 1019.9 hPa 16.1 km SSE 11.1 km/h / 3.1 m/s - N/A   Overcast
2:35 PM 11.0 °C - 8.0 °C 82% 1019.5 hPa 16.1 km South 11.1 km/h / 3.1 m/s - N/A   Overcast
2:55 PM 11.0 °C - 8.0 °C 82% 1019.5 hPa 16.1 km South 11.1 km/h / 3.1 m/s - N/A   Overcast
3:15 PM 11.0 °C - 8.0 °C 82% 1019.5 hPa 16.1 km SSE 13.0 km/h / 3.6 m/s - N/A   Overcast
3:35 PM 12.0 °C - 7.0 °C 72% 1019.5 hPa 16.1 km SSE 11.1 km/h / 3.1 m/s - N/A   Overcast
3:55 PM 11.0 °C - 7.0 °C 76% 1019.5 hPa 16.1 km SSE 13.0 km/h / 3.6 m/s - N/A   Overcast
4:15 PM 11.0 °C - 8.0 °C 82% 1019.9 hPa 8.0 km South 9.3 km/h / 2.6 m/s - 0.3 mm   Overcast
4:35 PM 10.0 °C - 8.0 °C 87% 1019.9 hPa 16.1 km South 7.4 km/h / 2.1 m/s - 1.0 mm   Overcast
4:55 PM 10.0 °C - 8.0 °C 87% 1019.9 hPa 16.1 km Calm Calm - 1.8 mm   Overcast
5:15 PM 10.0 °C - 8.0 °C 87% 1020.2 hPa 16.1 km SE 5.6 km/h / 1.5 m/s - 0.3 mm   Overcast
5:35 PM 10.0 °C - 8.0 °C 87% 1020.2 hPa 16.1 km SSE 5.6 km/h / 1.5 m/s - 0.3 mm   Overcast
5:55 PM 10.0 °C - 8.0 °C 87% 1020.2 hPa 16.1 km SSE 7.4 km/h / 2.1 m/s - 0.3 mm   Mostly Cloudy
6:15 PM 9.0 °C - 7.0 °C 87% 1020.2 hPa 16.1 km SE 7.4 km/h / 2.1 m/s - N/A   Mostly Cloudy
6:35 PM 9.0 °C - 7.0 °C 87% 1020.2 hPa 16.1 km SSE 7.4 km/h / 2.1 m/s - N/A   Scattered Clouds
6:55 PM 9.0 °C - 7.0 °C 87% 1020.2 hPa 16.1 km SE 7.4 km/h / 2.1 m/s - N/A   Mostly Cloudy
7:15 PM 9.0 °C - 7.0 °C 87% 1020.5 hPa 16.1 km SE 5.6 km/h / 1.5 m/s - N/A   Overcast
7:35 PM 9.0 °C - 7.0 °C 87% 1020.5 hPa 16.1 km SE 7.4 km/h / 2.1 m/s - N/A   Scattered Clouds
7:55 PM 9.0 °C - 7.0 °C 87% 1020.5 hPa 16.1 km Calm Calm - N/A   Scattered Clouds
8:15 PM 8.0 °C 7.3 °C 7.0 °C 93% 1020.9 hPa 16.1 km SE 5.6 km/h / 1.5 m/s - N/A   Mostly Cloudy
8:35 PM 8.0 °C - 7.0 °C 93% 1021.2 hPa 16.1 km Calm Calm - N/A   Overcast
8:55 PM 8.0 °C 7.3 °C 7.0 °C 93% 1021.6 hPa 16.1 km SSE 5.6 km/h / 1.5 m/s - N/A   Mostly Cloudy
9:15 PM 8.0 °C 7.3 °C 7.0 °C 93% 1021.6 hPa 16.1 km SE 5.6 km/h / 1.5 m/s - N/A   Overcast
9:35 PM 9.0 °C - 7.0 °C 87% 1021.9 hPa 16.1 km SE 7.4 km/h / 2.1 m/s - N/A   Overcast
9:55 PM 9.0 °C - 7.0 °C 87% 1022.2 hPa 16.1 km SSE 7.4 km/h / 2.1 m/s - N/A   Overcast
10:15 PM 9.0 °C - 7.0 °C 87% 1022.2 hPa 16.1 km SE 9.3 km/h / 2.6 m/s - N/A   Overcast
10:35 PM 9.0 °C - 7.0 °C 87% 1022.6 hPa 16.1 km SE 7.4 km/h / 2.1 m/s - N/A   Overcast
10:55 PM 9.0 °C - 7.0 °C 87% 1022.6 hPa 12.9 km SE 7.4 km/h / 2.1 m/s - N/A   Overcast
11:15 PM 9.0 °C - 7.0 °C 87% 1022.9 hPa 9.7 km ESE 5.6 km/h / 1.5 m/s - N/A   Overcast
11:35 PM 9.0 °C - 7.0 °C 87% 1023.2 hPa 12.9 km SE 5.6 km/h / 1.5 m/s - N/A   Overcast
11:55 PM 9.0 °C - 7.0 °C 87% 1023.2 hPa 16.1 km SSE 5.6 km/h / 1.5 m/s - N/A   Overcast